Miscellaneous Local Product
Issued by NWS North Platte, NE

Home | Current Version | Previous Version | Text Only | Print | Product List | Glossary On
Versions: 1 2 3 4 5 6 7 8 9 10 11 12 13 14 15 16 17 18 19 20 21 22 23 24 25 26 27 28 29 30 31 32 33 34 35 36 37 38 39 40 41 42 43 44 45 46 47 48 49 50
000
AXUS43 KLBF 220510
MISLBF


WESTERN AND NORTH CENTRAL NEBRASKA HOURLY WEATHER ROUNDUP
NATIONAL WEATHER SERVICE NORTH PLATTE NE
1200 AM CDT FRI AUG 22 2014

***STATIONS NOT REPORTING VARIABLES SUCH AS SKY/WEATHER OR
PRESSURE ARE PROVIDED BY THE NEBRASKA DEPARTMENT OF
ROADS...RAWS...AND APRS NETWORKS...AND ARE NOT UNDER
NATIONAL WEATHER SERVICE QUALITY CONTROL***

...OBSERVATIONS IN AND NEAR THE EASTERN PANHANDLE OF NEBRASKA...

CITY           SKY/WX    TMP DP  RH WIND       PRES   REMARKS
PINE RIDGE     CLEAR     76  55  48 SE16G23   29.96F
CHADRON        MOCLDY    75  49  39 SW10      29.96R
ALLIANCE       PTCLDY    69  51  52 W6        30.04R
SIDNEY         MOCLDY    68  57  68 SW5       30.07S
WHITECLAY        N/A     69  55  60 SE8         N/A
RUSHVILLE        N/A     68  56  64 SW9         N/A
GORDON           N/A     75  58  55 SE14        N/A
CRESCENT LAKE    N/A     70  52  52 S3          N/A
LISCO            N/A     75  54  48 E5          N/A
BIG SPRINGS      N/A     70  62  77 CALM        N/A
$$

...OBSERVATIONS IN NORTH CENTRAL NEBRASKA...

CITY           SKY/WX    TMP DP  RH WIND       PRES   REMARKS
VALENTINE      CLEAR     74  58  57 SE9       29.97R
THEDFORD       CLEAR     70  62  74 CALM      29.98S
AINSWORTH      PTCLDY    68  63  83 SE3       29.97S
O`NEILL        CLEAR     71  66  85 NE5       29.93S
ORD            CLEAR     73  68  84 CALM      29.91S
BROKEN BOW     CLEAR     69  65  86 N3        29.95R
BROWNLEE         N/A     74  62  65 E9          N/A
SPRINGVIEW       N/A     65  60  83 CALM        N/A
ROSE             N/A     74  70  86 N5          N/A
NEWPORT          N/A     67  65  91 CALM        N/A
SARGENT          N/A     69  65  86 CALM        N/A
COMSTOCK         N/A     78  73  85 CALM        N/A
CHAMBERS         N/A     70  65  85 CALM        N/A
EWING            N/A     71  67  89 CALM        N/A
$$

...OBSERVATIONS IN SOUTHWEST NEBRASKA AND FAR NORTHEAST COLORADO...

CITY           SKY/WX    TMP DP  RH WIND       PRES   REMARKS
WRAY             N/A     70  53  54 CALM      30.01S
IMPERIAL       PTCLDY    71  63  75 E5        29.99S
OGALLALA       CLEAR     68  62  80 CALM      30.00R
NORTH PLATTE   CLEAR     67  62  84 E3        29.96F
MCCOOK         CLEAR     72  66  81 NE6       29.95R
LEXINGTON      CLEAR     73  71  92 E3        29.94R
PAXTON           N/A     70  64  82 CALM        N/A
SUTHERLAND       N/A     73  68  86 CALM        N/A
BRADY            N/A     70  65  85 CALM        N/A
GOTHENBURG       N/A     75  64  68 CALM        N/A
CALLAWAY         N/A     66  64  92 CALM        N/A
$$

...SOME WEATHER OBSERVATIONS FROM AROUND THE REGION...

CITY           SKY/WX    TMP DP  RH WIND       PRES   REMARKS
DENVER         CLOUDY    64  57  78 SE6       30.16R
LARAMIE        CLOUDY    54  45  71 E9        30.27F
CHEYENNE       MOCLDY    63  45  51 NW7       30.20F
SCOTTSBLUFF    MOCLDY    71  53  52 CALM      30.04S
RAPID CITY     MOCLDY    63  60  90 NW7       30.00R
PIERRE         CLEAR     67  61  81 E6        29.91S
WINNER         FAIR      68  61  78 E6        29.94S
SIOUX FALLS    PTCLDY    71  68  90 CALM      29.90S
OMAHA          CLOUDY    81  77  88 NW15      29.88R THUNDER
GRAND ISLAND   PTCLDY    76  70  82 S7        29.92R
KANSAS CITY    CLEAR     83  72  69 S13       29.92R
WICHITA        PTCLDY    85  70  60 S20       29.91R
HAYS           CLEAR     81  64  57 SE10      29.89S
LIBERAL        PTCLDY    79  59  50 CALM      29.97R
GOODLAND       PTCLDY    69  55  60 CALM      30.01R
$$



USA.gov is the U.S. government's official web portal to all federal, state and local government web resources and services.